owner,sensor,date,latitude,longitude,sea_water_turbidity,qcFlag 
SCCF RECON,ioos:station:SCCF:16:1,2011-01-01T00:00:00Z,26.4345,-81.9647,8.6,1111122 
SCCF RECON,ioos:station:SCCF:16:1,2011-01-01T01:00:00Z,26.4345,-81.9647,6.91,1111122 
SCCF RECON,ioos:station:SCCF:16:1,2011-01-01T02:00:00Z,26.4345,-81.9647,7.46,1111122 
SCCF RECON,ioos:station:SCCF:16:1,2011-01-01T03:00:00Z,26.4345,-81.9647,7.48,1111122 
SCCF RECON,ioos:station:SCCF:16:1,2011-01-01T04:00:00Z,26.4345,-81.9647,7.92,1111122 
SCCF RECON,ioos:station:SCCF:16:1,2011-01-01T05:00:00Z,26.4345,-81.9647,7.48,1111122 
SCCF RECON,ioos:station:SCCF:16:1,2011-01-01T06:00:00Z,26.4345,-81.9647,8.48,1111122 
SCCF RECON,ioos:station:SCCF:16:1,2011-01-01T07:00:00Z,26.4345,-81.9647,10.29,1111122 
SCCF RECON,ioos:station:SCCF:16:1,2011-01-01T08:00:00Z,26.4345,-81.9647,10.48,1111122 
SCCF RECON,ioos:station:SCCF:16:1,2011-01-01T09:00:00Z,26.4345,-81.9647,13.74,1111122 
SCCF RECON,ioos:station:SCCF:16:1,2011-01-01T10:00:00Z,26.4345,-81.9647,12.21,1111122 
SCCF RECON,ioos:station:SCCF:16:1,2011-01-01T11:00:00Z,26.4345,-81.9647,9.91,1111122 
SCCF RECON,ioos:station:SCCF:16:1,2011-01-01T12:00:00Z,26.4345,-81.9647,7.84,1111122 
SCCF RECON,ioos:station:SCCF:16:1,2011-01-01T13:00:00Z,26.4345,-81.9647,6.88,1111122 
SCCF RECON,ioos:station:SCCF:16:1,2011-01-01T14:00:00Z,26.4345,-81.9647,7.59,1111122 
SCCF RECON,ioos:station:SCCF:16:1,2011-01-01T15:00:00Z,26.4345,-81.9647,8.62,1111122 
SCCF RECON,ioos:station:SCCF:16:1,2011-01-01T16:00:00Z,26.4345,-81.9647,9.29,1111122 
SCCF RECON,ioos:station:SCCF:16:1,2011-01-01T17:00:00Z,26.4345,-81.9647,9.39,1111122 
SCCF RECON,ioos:station:SCCF:16:1,2011-01-01T18:00:00Z,26.4345,-81.9647,10.29,1111122 
SCCF RECON,ioos:station:SCCF:16:1,2011-01-01T19:00:00Z,26.4345,-81.9647,9.88,1111122 
SCCF RECON,ioos:station:SCCF:16:1,2011-01-01T20:00:00Z,26.4345,-81.9647,10.17,1111122 
SCCF RECON,ioos:station:SCCF:16:1,2011-01-01T21:00:00Z,26.4345,-81.9647,9.4,1111122 
SCCF RECON,ioos:station:SCCF:16:1,2011-01-01T22:00:00Z,26.4345,-81.9647,9.48,1111122 
SCCF RECON,ioos:station:SCCF:16:1,2011-01-01T23:00:00Z,26.4345,-81.9647,11.8,1111122 
SCCF RECON,ioos:station:SCCF:16:1,2011-01-02T00:00:00Z,26.4345,-81.9647,12.18,1111122 
SCCF RECON,ioos:station:SCCF:16:1,2011-01-02T01:00:00Z,26.4345,-81.9647,12.07,1111122 
SCCF RECON,ioos:station:SCCF:16:1,2011-01-02T02:00:00Z,26.4345,-81.9647,9.38,1111122 
SCCF RECON,ioos:station:SCCF:16:1,2011-01-02T03:00:00Z,26.4345,-81.9647,10.78,1111122 
SCCF RECON,ioos:station:SCCF:16:1,2011-01-02T04:00:00Z,26.4345,-81.9647,10.46,1111122 
SCCF RECON,ioos:station:SCCF:16:1,2011-01-02T05:00:00Z,26.4345,-81.9647,9.68,1111122 
SCCF RECON,ioos:station:SCCF:16:1,2011-01-02T06:00:00Z,26.4345,-81.9647,9.86,1111122 
SCCF RECON,ioos:station:SCCF:16:1,2011-01-02T07:00:00Z,26.4345,-81.9647,9.86,1111122 
SCCF RECON,ioos:station:SCCF:16:1,2011-01-02T08:00:00Z,26.4345,-81.9647,11.43,1111122 
SCCF RECON,ioos:station:SCCF:16:1,2011-01-02T09:00:00Z,26.4345,-81.9647,13.02,1111122 
SCCF RECON,ioos:station:SCCF:16:1,2011-01-02T10:00:00Z,26.4345,-81.9647,13.78,1111122 
SCCF RECON,ioos:station:SCCF:16:1,2011-01-02T11:00:00Z,26.4345,-81.9647,12.27,1111122 
SCCF RECON,ioos:station:SCCF:16:1,2011-01-02T12:00:00Z,26.4345,-81.9647,11.52,1111122 
SCCF RECON,ioos:station:SCCF:16:1,2011-01-02T13:00:00Z,26.4345,-81.9647,8.48,1111122 
SCCF RECON,ioos:station:SCCF:16:1,2011-01-02T14:00:00Z,26.4345,-81.9647,9.3,1111122 
SCCF RECON,ioos:station:SCCF:16:1,2011-01-02T15:00:00Z,26.4345,-81.9647,13.22,1111122 
SCCF RECON,ioos:station:SCCF:16:1,2011-01-02T16:00:00Z,26.4345,-81.9647,15.84,1111122 
SCCF RECON,ioos:station:SCCF:16:1,2011-01-02T17:00:00Z,26.4345,-81.9647,15.37,1111122 
SCCF RECON,ioos:station:SCCF:16:1,2011-01-02T18:00:00Z,26.4345,-81.9647,11.68,1111122 
SCCF RECON,ioos:station:SCCF:16:1,2011-01-02T19:00:00Z,26.4345,-81.9647,9.59,1111122 
SCCF RECON,ioos:station:SCCF:16:1,2011-01-02T20:00:00Z,26.4345,-81.9647,9.1,1111122 
SCCF RECON,ioos:station:SCCF:16:1,2011-01-02T21:00:00Z,26.4345,-81.9647,8.34,1111122 
SCCF RECON,ioos:station:SCCF:16:1,2011-01-02T22:00:00Z,26.4345,-81.9647,8.74,1111122 
SCCF RECON,ioos:station:SCCF:16:1,2011-01-02T23:00:00Z,26.4345,-81.9647,7.9,1111122 
SCCF RECON,ioos:station:SCCF:16:1,2011-01-03T00:00:00Z,26.4345,-81.9647,6.7,1111122 
SCCF RECON,ioos:station:SCCF:16:1,2011-01-03T01:00:00Z,26.4345,-81.9647,9.39,1111122 
SCCF RECON,ioos:station:SCCF:16:1,2011-01-03T02:00:00Z,26.4345,-81.9647,10.03,1111122 
SCCF RECON,ioos:station:SCCF:16:1,2011-01-03T03:00:00Z,26.4345,-81.9647,7.5,1111122 
SCCF RECON,ioos:station:SCCF:16:1,2011-01-03T04:00:00Z,26.4345,-81.9647,5.58,1111122 
SCCF RECON,ioos:station:SCCF:16:1,2011-01-03T05:00:00Z,26.4345,-81.9647,6.25,1111122 
SCCF RECON,ioos:station:SCCF:16:1,2011-01-03T06:00:00Z,26.4345,-81.9647,6.52,1111122 
SCCF RECON,ioos:station:SCCF:16:1,2011-01-03T07:00:00Z,26.4345,-81.9647,6.58,1111122 
SCCF RECON,ioos:station:SCCF:16:1,2011-01-03T08:00:00Z,26.4345,-81.9647,9.77,1111122 
SCCF RECON,ioos:station:SCCF:16:1,2011-01-03T09:00:00Z,26.4345,-81.9647,11.57,1111122 
SCCF RECON,ioos:station:SCCF:16:1,2011-01-03T10:00:00Z,26.4345,-81.9647,14.07,1111122 
SCCF RECON,ioos:station:SCCF:16:1,2011-01-03T11:00:00Z,26.4345,-81.9647,13.71,1111122 
SCCF RECON,ioos:station:SCCF:16:1,2011-01-03T12:00:00Z,26.4345,-81.9647,12.69,1111122 
SCCF RECON,ioos:station:SCCF:16:1,2011-01-03T13:00:00Z,26.4345,-81.9647,11.25,1111122 
SCCF RECON,ioos:station:SCCF:16:1,2011-01-03T14:00:00Z,26.4345,-81.9647,9.74,1111122 
SCCF RECON,ioos:station:SCCF:16:1,2011-01-03T15:00:00Z,26.4345,-81.9647,13.1,1111122 
SCCF RECON,ioos:station:SCCF:16:1,2011-01-03T16:00:00Z,26.4345,-81.9647,12.8,1111122 
SCCF RECON,ioos:station:SCCF:16:1,2011-01-03T17:00:00Z,26.4345,-81.9647,14.12,1111122 
SCCF RECON,ioos:station:SCCF:16:1,2011-01-03T18:00:00Z,26.4345,-81.9647,14.31,1111122 
SCCF RECON,ioos:station:SCCF:16:1,2011-01-03T19:00:00Z,26.4345,-81.9647,12.88,1111122 
SCCF RECON,ioos:station:SCCF:16:1,2011-01-03T20:00:00Z,26.4345,-81.9647,12.44,1111122 
SCCF RECON,ioos:station:SCCF:16:1,2011-01-03T21:00:00Z,26.4345,-81.9647,8.52,1111122 
SCCF RECON,ioos:station:SCCF:16:1,2011-01-03T22:00:00Z,26.4345,-81.9647,7.42,1111122 
SCCF RECON,ioos:station:SCCF:16:1,2011-01-03T23:00:00Z,26.4345,-81.9647,6.99,1111122 
SCCF RECON,ioos:station:SCCF:16:1,2011-01-04T00:00:00Z,26.4345,-81.9647,7.27,1111122 
SCCF RECON,ioos:station:SCCF:16:1,2011-01-04T01:00:00Z,26.4345,-81.9647,7.02,1111122 
SCCF RECON,ioos:station:SCCF:16:1,2011-01-04T02:00:00Z,26.4345,-81.9647,7.5,1111122 
SCCF RECON,ioos:station:SCCF:16:1,2011-01-04T03:00:00Z,26.4345,-81.9647,8.12,1111122 
SCCF RECON,ioos:station:SCCF:16:1,2011-01-04T04:00:00Z,26.4345,-81.9647,7.7,1111122 
SCCF RECON,ioos:station:SCCF:16:1,2011-01-04T05:00:00Z,26.4345,-81.9647,9.29,1111122 
SCCF RECON,ioos:station:SCCF:16:1,2011-01-04T06:00:00Z,26.4345,-81.9647,7.9,1111122 
SCCF RECON,ioos:station:SCCF:16:1,2011-01-04T07:00:00Z,26.4345,-81.9647,7.12,1111122 
SCCF RECON,ioos:station:SCCF:16:1,2011-01-04T08:00:00Z,26.4345,-81.9647,9.15,1111122 
SCCF RECON,ioos:station:SCCF:16:1,2011-01-04T09:00:00Z,26.4345,-81.9647,10.51,1111122 
SCCF RECON,ioos:station:SCCF:16:1,2011-01-04T10:00:00Z,26.4345,-81.9647,10.69,1111122 
SCCF RECON,ioos:station:SCCF:16:1,2011-01-04T11:00:00Z,26.4345,-81.9647,13.53,1111122 
SCCF RECON,ioos:station:SCCF:16:1,2011-01-04T12:00:00Z,26.4345,-81.9647,11.3,1111122 
SCCF RECON,ioos:station:SCCF:16:1,2011-01-04T13:00:00Z,26.4345,-81.9647,10.85,1111122 
SCCF RECON,ioos:station:SCCF:16:1,2011-01-04T14:00:00Z,26.4345,-81.9647,8.02,1111122 
SCCF RECON,ioos:station:SCCF:16:1,2011-01-04T15:00:00Z,26.4345,-81.9647,10.76,1111122 
SCCF RECON,ioos:station:SCCF:16:1,2011-01-04T16:00:00Z,26.4345,-81.9647,13.44,1111122 
SCCF RECON,ioos:station:SCCF:16:1,2011-01-04T17:00:00Z,26.4345,-81.9647,13.36,1111122 
SCCF RECON,ioos:station:SCCF:16:1,2011-01-04T18:00:00Z,26.4345,-81.9647,14.04,1111122 
SCCF RECON,ioos:station:SCCF:16:1,2011-01-04T19:00:00Z,26.4345,-81.9647,12.0,1111122 
SCCF RECON,ioos:station:SCCF:16:1,2011-01-04T20:00:00Z,26.4345,-81.9647,9.35,1111122 
SCCF RECON,ioos:station:SCCF:16:1,2011-01-04T21:00:00Z,26.4345,-81.9647,8.47,1111122 
SCCF RECON,ioos:station:SCCF:16:1,2011-01-04T22:00:00Z,26.4345,-81.9647,7.69,1111122 
SCCF RECON,ioos:station:SCCF:16:1,2011-01-04T23:00:00Z,26.4345,-81.9647,7.87,1111122 
SCCF RECON,ioos:station:SCCF:16:1,2011-01-05T00:00:00Z,26.4345,-81.9647,7.73,1111122 
SCCF RECON,ioos:station:SCCF:16:1,2011-01-05T01:00:00Z,26.4345,-81.9647,6.88,1111122 
SCCF RECON,ioos:station:SCCF:16:1,2011-01-05T02:00:00Z,26.4345,-81.9647,7.07,1111122 
SCCF RECON,ioos:station:SCCF:16:1,2011-01-05T03:00:00Z,26.4345,-81.9647,6.52,1111122 
SCCF RECON,ioos:station:SCCF:16:1,2011-01-05T04:00:00Z,26.4345,-81.9647,8.11,1111122 
SCCF RECON,ioos:station:SCCF:16:1,2011-01-05T05:00:00Z,26.4345,-81.9647,8.97,1111122 
SCCF RECON,ioos:station:SCCF:16:1,2011-01-05T06:00:00Z,26.4345,-81.9647,9.26,1111122 
SCCF RECON,ioos:station:SCCF:16:1,2011-01-05T07:00:00Z,26.4345,-81.9647,7.87,1111122 
SCCF RECON,ioos:station:SCCF:16:1,2011-01-05T08:00:00Z,26.4345,-81.9647,7.0,1111122 
SCCF RECON,ioos:station:SCCF:16:1,2011-01-05T09:00:00Z,26.4345,-81.9647,7.89,1111122 
SCCF RECON,ioos:station:SCCF:16:1,2011-01-05T10:00:00Z,26.4345,-81.9647,9.91,1111122 
SCCF RECON,ioos:station:SCCF:16:1,2011-01-05T11:00:00Z,26.4345,-81.9647,10.56,1111122 
SCCF RECON,ioos:station:SCCF:16:1,2011-01-05T12:00:00Z,26.4345,-81.9647,10.63,1111122 
SCCF RECON,ioos:station:SCCF:16:1,2011-01-05T13:00:00Z,26.4345,-81.9647,9.39,1111122 
SCCF RECON,ioos:station:SCCF:16:1,2011-01-05T14:00:00Z,26.4345,-81.9647,8.33,1111122 
SCCF RECON,ioos:station:SCCF:16:1,2011-01-05T15:00:00Z,26.4345,-81.9647,8.6,1111122 
SCCF RECON,ioos:station:SCCF:16:1,2011-01-05T16:00:00Z,26.4345,-81.9647,13.17,1111122 
SCCF RECON,ioos:station:SCCF:16:1,2011-01-05T17:00:00Z,26.4345,-81.9647,8.85,1111122 
SCCF RECON,ioos:station:SCCF:16:1,2011-01-05T18:00:00Z,26.4345,-81.9647,15.55,1111122 
SCCF RECON,ioos:station:SCCF:16:1,2011-01-05T19:00:00Z,26.4345,-81.9647,8.31,1111122 
SCCF RECON,ioos:station:SCCF:16:1,2011-01-05T20:00:00Z,26.4345,-81.9647,7.3,1111122 
SCCF RECON,ioos:station:SCCF:16:1,2011-01-05T21:00:00Z,26.4345,-81.9647,7.08,1111122 
SCCF RECON,ioos:station:SCCF:16:1,2011-01-05T22:00:00Z,26.4345,-81.9647,6.13,1111122 
SCCF RECON,ioos:station:SCCF:16:1,2011-01-05T23:00:00Z,26.4345,-81.9647,5.88,1111122 
SCCF RECON,ioos:station:SCCF:16:1,2011-01-06T00:00:00Z,26.4345,-81.9647,6.54,1111122 
SCCF RECON,ioos:station:SCCF:16:1,2011-01-06T01:00:00Z,26.4345,-81.9647,7.94,1111122 
SCCF RECON,ioos:station:SCCF:16:1,2011-01-06T02:00:00Z,26.4345,-81.9647,5.56,1111122 
SCCF RECON,ioos:station:SCCF:16:1,2011-01-06T03:00:00Z,26.4345,-81.9647,5.27,1111122 
SCCF RECON,ioos:station:SCCF:16:1,2011-01-06T04:00:00Z,26.4345,-81.9647,5.96,1111122 
SCCF RECON,ioos:station:SCCF:16:1,2011-01-06T05:00:00Z,26.4345,-81.9647,5.98,1111122 
SCCF RECON,ioos:station:SCCF:16:1,2011-01-06T06:00:00Z,26.4345,-81.9647,6.47,1111122 
SCCF RECON,ioos:station:SCCF:16:1,2011-01-06T07:00:00Z,26.4345,-81.9647,6.49,1111122 
SCCF RECON,ioos:station:SCCF:16:1,2011-01-06T08:00:00Z,26.4345,-81.9647,6.68,1111122 
SCCF RECON,ioos:station:SCCF:16:1,2011-01-06T09:00:00Z,26.4345,-81.9647,5.8,1111122 
SCCF RECON,ioos:station:SCCF:16:1,2011-01-06T10:00:00Z,26.4345,-81.9647,5.98,1111122 
SCCF RECON,ioos:station:SCCF:16:1,2011-01-06T11:00:00Z,26.4345,-81.9647,7.75,1111122 
SCCF RECON,ioos:station:SCCF:16:1,2011-01-06T12:00:00Z,26.4345,-81.9647,9.83,1111122 
SCCF RECON,ioos:station:SCCF:16:1,2011-01-06T13:00:00Z,26.4345,-81.9647,9.07,1111122 
SCCF RECON,ioos:station:SCCF:16:1,2011-01-06T14:00:00Z,26.4345,-81.9647,8.82,1111122 
SCCF RECON,ioos:station:SCCF:16:1,2011-01-06T15:00:00Z,26.4345,-81.9647,7.13,1111122 
SCCF RECON,ioos:station:SCCF:16:1,2011-01-06T16:00:00Z,26.4345,-81.9647,6.84,1111122 
SCCF RECON,ioos:station:SCCF:16:1,2011-01-06T17:00:00Z,26.4345,-81.9647,7.92,1111122 
SCCF RECON,ioos:station:SCCF:16:1,2011-01-06T18:00:00Z,26.4345,-81.9647,8.83,1111122 
SCCF RECON,ioos:station:SCCF:16:1,2011-01-06T19:00:00Z,26.4345,-81.9647,13.53,1111122 
SCCF RECON,ioos:station:SCCF:16:1,2011-01-06T20:00:00Z,26.4345,-81.9647,14.18,1111122 
SCCF RECON,ioos:station:SCCF:16:1,2011-01-06T21:00:00Z,26.4345,-81.9647,11.16,1111122 
SCCF RECON,ioos:station:SCCF:16:1,2011-01-06T22:00:00Z,26.4345,-81.9647,9.92,1111122 
SCCF RECON,ioos:station:SCCF:16:1,2011-01-06T23:00:00Z,26.4345,-81.9647,8.08,1111122 
SCCF RECON,ioos:station:SCCF:16:1,2011-01-07T00:00:00Z,26.4345,-81.9647,8.72,1111122 
SCCF RECON,ioos:station:SCCF:16:1,2011-01-07T01:00:00Z,26.4345,-81.9647,6.44,1111122 
SCCF RECON,ioos:station:SCCF:16:1,2011-01-07T02:00:00Z,26.4345,-81.9647,5.51,1111122 
SCCF RECON,ioos:station:SCCF:16:1,2011-01-07T03:00:00Z,26.4345,-81.9647,6.32,1111122 
SCCF RECON,ioos:station:SCCF:16:1,2011-01-07T04:00:00Z,26.4345,-81.9647,7.5,1111122 
SCCF RECON,ioos:station:SCCF:16:1,2011-01-07T05:00:00Z,26.4345,-81.9647,12.36,1111122 
SCCF RECON,ioos:station:SCCF:16:1,2011-01-07T06:00:00Z,26.4345,-81.9647,13.78,1111122 
SCCF RECON,ioos:station:SCCF:16:1,2011-01-07T07:00:00Z,26.4345,-81.9647,24.62,1111122 
SCCF RECON,ioos:station:SCCF:16:1,2011-01-07T08:00:00Z,26.4345,-81.9647,14.46,1111122 
SCCF RECON,ioos:station:SCCF:16:1,2011-01-07T09:00:00Z,26.4345,-81.9647,11.41,1111122 
SCCF RECON,ioos:station:SCCF:16:1,2011-01-07T10:00:00Z,26.4345,-81.9647,8.91,1111122 
SCCF RECON,ioos:station:SCCF:16:1,2011-01-07T11:00:00Z,26.4345,-81.9647,8.61,1111122 
SCCF RECON,ioos:station:SCCF:16:1,2011-01-07T12:00:00Z,26.4345,-81.9647,9.57,1111122 
SCCF RECON,ioos:station:SCCF:16:1,2011-01-07T13:00:00Z,26.4345,-81.9647,9.6,1111122 
SCCF RECON,ioos:station:SCCF:16:1,2011-01-07T14:00:00Z,26.4345,-81.9647,9.48,1111122 
SCCF RECON,ioos:station:SCCF:16:1,2011-01-07T15:00:00Z,26.4345,-81.9647,8.51,1111122 
SCCF RECON,ioos:station:SCCF:16:1,2011-01-07T16:00:00Z,26.4345,-81.9647,8.35,1111122 
SCCF RECON,ioos:station:SCCF:16:1,2011-01-07T17:00:00Z,26.4345,-81.9647,12.36,1111122 
SCCF RECON,ioos:station:SCCF:16:1,2011-01-07T18:00:00Z,26.4345,-81.9647,17.22,1111122 
SCCF RECON,ioos:station:SCCF:16:1,2011-01-07T19:00:00Z,26.4345,-81.9647,19.24,1111122 
SCCF RECON,ioos:station:SCCF:16:1,2011-01-07T20:00:00Z,26.4345,-81.9647,19.98,1111122 
SCCF RECON,ioos:station:SCCF:16:1,2011-01-07T21:00:00Z,26.4345,-81.9647,17.08,1111122 
SCCF RECON,ioos:station:SCCF:16:1,2011-01-07T22:00:00Z,26.4345,-81.9647,14.89,1111122 
SCCF RECON,ioos:station:SCCF:16:1,2011-01-07T23:00:00Z,26.4345,-81.9647,11.22,1111122 
SCCF RECON,ioos:station:SCCF:16:1,2011-01-08T00:00:00Z,26.4345,-81.9647,11.44,1111122 
SCCF RECON,ioos:station:SCCF:16:1,2011-01-08T01:00:00Z,26.4345,-81.9647,12.56,1111122 
SCCF RECON,ioos:station:SCCF:16:1,2011-01-08T02:00:00Z,26.4345,-81.9647,14.18,1111122 
SCCF RECON,ioos:station:SCCF:16:1,2011-01-08T03:00:00Z,26.4345,-81.9647,10.81,1111122 
SCCF RECON,ioos:station:SCCF:16:1,2011-01-08T04:00:00Z,26.4345,-81.9647,16.13,1111122 
SCCF RECON,ioos:station:SCCF:16:1,2011-01-08T05:00:00Z,26.4345,-81.9647,18.08,1111122 
SCCF RECON,ioos:station:SCCF:16:1,2011-01-08T06:00:00Z,26.4345,-81.9647,21.22,1111122 
SCCF RECON,ioos:station:SCCF:16:1,2011-01-08T07:00:00Z,26.4345,-81.9647,19.0,1111122 
SCCF RECON,ioos:station:SCCF:16:1,2011-01-08T08:00:00Z,26.4345,-81.9647,16.17,1111122 
SCCF RECON,ioos:station:SCCF:16:1,2011-01-08T09:00:00Z,26.4345,-81.9647,15.77,1111122 
SCCF RECON,ioos:station:SCCF:16:1,2011-01-08T10:00:00Z,26.4345,-81.9647,14.06,1111122 
SCCF RECON,ioos:station:SCCF:16:1,2011-01-08T11:00:00Z,26.4345,-81.9647,12.98,1111122 
SCCF RECON,ioos:station:SCCF:16:1,2011-01-08T12:00:00Z,26.4345,-81.9647,13.15,1111122 
SCCF RECON,ioos:station:SCCF:16:1,2011-01-08T13:00:00Z,26.4345,-81.9647,11.65,1111122 
SCCF RECON,ioos:station:SCCF:16:1,2011-01-08T14:00:00Z,26.4345,-81.9647,12.8,1111122 
SCCF RECON,ioos:station:SCCF:16:1,2011-01-08T15:00:00Z,26.4345,-81.9647,10.87,1111122 
SCCF RECON,ioos:station:SCCF:16:1,2011-01-08T16:00:00Z,26.4345,-81.9647,8.29,1111122 
SCCF RECON,ioos:station:SCCF:16:1,2011-01-08T17:00:00Z,26.4345,-81.9647,15.98,1111122 
SCCF RECON,ioos:station:SCCF:16:1,2011-01-08T18:00:00Z,26.4345,-81.9647,24.05,1111122 
SCCF RECON,ioos:station:SCCF:16:1,2011-01-08T19:00:00Z,26.4345,-81.9647,17.72,1111122 
SCCF RECON,ioos:station:SCCF:16:1,2011-01-08T20:00:00Z,26.4345,-81.9647,20.27,1111122 
SCCF RECON,ioos:station:SCCF:16:1,2011-01-08T21:00:00Z,26.4345,-81.9647,14.59,1111122 
SCCF RECON,ioos:station:SCCF:16:1,2011-01-08T22:00:00Z,26.4345,-81.9647,11.71,1111122 
SCCF RECON,ioos:station:SCCF:16:1,2011-01-08T23:00:00Z,26.4345,-81.9647,12.64,1111122 
SCCF RECON,ioos:station:SCCF:16:1,2011-01-09T00:00:00Z,26.4345,-81.9647,9.18,1111122 
SCCF RECON,ioos:station:SCCF:16:1,2011-01-09T01:00:00Z,26.4345,-81.9647,8.89,1111122 
SCCF RECON,ioos:station:SCCF:16:1,2011-01-09T02:00:00Z,26.4345,-81.9647,7.85,1111122 
SCCF RECON,ioos:station:SCCF:16:1,2011-01-09T03:00:00Z,26.4345,-81.9647,7.67,1111122 
SCCF RECON,ioos:station:SCCF:16:1,2011-01-09T04:00:00Z,26.4345,-81.9647,6.32,1111122 
SCCF RECON,ioos:station:SCCF:16:1,2011-01-09T05:00:00Z,26.4345,-81.9647,13.55,1111122 
SCCF RECON,ioos:station:SCCF:16:1,2011-01-09T06:00:00Z,26.4345,-81.9647,11.57,1111122 
SCCF RECON,ioos:station:SCCF:16:1,2011-01-09T07:00:00Z,26.4345,-81.9647,8.72,1111122 
SCCF RECON,ioos:station:SCCF:16:1,2011-01-09T08:00:00Z,26.4345,-81.9647,7.87,1111122 
SCCF RECON,ioos:station:SCCF:16:1,2011-01-09T09:00:00Z,26.4345,-81.9647,10.82,1111122 
SCCF RECON,ioos:station:SCCF:16:1,2011-01-09T10:00:00Z,26.4345,-81.9647,9.57,1111122 
SCCF RECON,ioos:station:SCCF:16:1,2011-01-09T11:00:00Z,26.4345,-81.9647,8.83,1111122 
SCCF RECON,ioos:station:SCCF:16:1,2011-01-09T12:00:00Z,26.4345,-81.9647,12.19,1111122 
SCCF RECON,ioos:station:SCCF:16:1,2011-01-09T13:00:00Z,26.4345,-81.9647,10.28,1111122 
SCCF RECON,ioos:station:SCCF:16:1,2011-01-09T14:00:00Z,26.4345,-81.9647,8.74,1111122 
SCCF RECON,ioos:station:SCCF:16:1,2011-01-09T15:00:00Z,26.4345,-81.9647,8.35,1111122 
SCCF RECON,ioos:station:SCCF:16:1,2011-01-09T16:00:00Z,26.4345,-81.9647,7.18,1111122 
SCCF RECON,ioos:station:SCCF:16:1,2011-01-09T17:00:00Z,26.4345,-81.9647,6.78,1111122 
SCCF RECON,ioos:station:SCCF:16:1,2011-01-09T18:00:00Z,26.4345,-81.9647,8.24,1111122 
SCCF RECON,ioos:station:SCCF:16:1,2011-01-09T19:00:00Z,26.4345,-81.9647,10.35,1111122 
SCCF RECON,ioos:station:SCCF:16:1,2011-01-09T20:00:00Z,26.4345,-81.9647,10.04,1111122 
SCCF RECON,ioos:station:SCCF:16:1,2011-01-09T21:00:00Z,26.4345,-81.9647,9.38,1111122 
SCCF RECON,ioos:station:SCCF:16:1,2011-01-09T22:00:00Z,26.4345,-81.9647,9.46,1111122 
SCCF RECON,ioos:station:SCCF:16:1,2011-01-09T23:00:00Z,26.4345,-81.9647,9.8,1111122 
SCCF RECON,ioos:station:SCCF:16:1,2011-01-10T00:00:00Z,26.4345,-81.9647,9.04,1111122 
SCCF RECON,ioos:station:SCCF:16:1,2011-01-10T01:00:00Z,26.4345,-81.9647,6.89,1111122 
SCCF RECON,ioos:station:SCCF:16:1,2011-01-10T02:00:00Z,26.4345,-81.9647,6.03,1111122 
SCCF RECON,ioos:station:SCCF:16:1,2011-01-10T03:00:00Z,26.4345,-81.9647,5.59,1111122 
SCCF RECON,ioos:station:SCCF:16:1,2011-01-10T04:00:00Z,26.4345,-81.9647,5.48,1111122 
SCCF RECON,ioos:station:SCCF:16:1,2011-01-10T05:00:00Z,26.4345,-81.9647,5.41,1111122 
SCCF RECON,ioos:station:SCCF:16:1,2011-01-10T06:00:00Z,26.4345,-81.9647,5.45,1111122 
SCCF RECON,ioos:station:SCCF:16:1,2011-01-10T07:00:00Z,26.4345,-81.9647,6.73,1111122 
SCCF RECON,ioos:station:SCCF:16:1,2011-01-10T08:00:00Z,26.4345,-81.9647,8.01,1111122 
SCCF RECON,ioos:station:SCCF:16:1,2011-01-10T09:00:00Z,26.4345,-81.9647,9.26,1111122 
SCCF RECON,ioos:station:SCCF:16:1,2011-01-10T10:00:00Z,26.4345,-81.9647,11.91,1111122 
SCCF RECON,ioos:station:SCCF:16:1,2011-01-10T11:00:00Z,26.4345,-81.9647,10.93,1111122 
SCCF RECON,ioos:station:SCCF:16:1,2011-01-10T12:00:00Z,26.4345,-81.9647,10.62,1111122 
SCCF RECON,ioos:station:SCCF:16:1,2011-01-10T13:00:00Z,26.4345,-81.9647,9.84,1111122 
SCCF RECON,ioos:station:SCCF:16:1,2011-01-10T14:00:00Z,26.4345,-81.9647,7.59,1111122 
SCCF RECON,ioos:station:SCCF:16:1,2011-01-10T15:00:00Z,26.4345,-81.9647,6.77,1111122 
SCCF RECON,ioos:station:SCCF:16:1,2011-01-10T16:00:00Z,26.4345,-81.9647,6.5,1111122 
SCCF RECON,ioos:station:SCCF:16:1,2011-01-10T17:00:00Z,26.4345,-81.9647,5.92,1111122 
SCCF RECON,ioos:station:SCCF:16:1,2011-01-10T18:00:00Z,26.4345,-81.9647,5.4,1111122 
SCCF RECON,ioos:station:SCCF:16:1,2011-01-10T19:00:00Z,26.4345,-81.9647,7.87,1111122 
SCCF RECON,ioos:station:SCCF:16:1,2011-01-10T20:00:00Z,26.4345,-81.9647,10.5,1111122 
SCCF RECON,ioos:station:SCCF:16:1,2011-01-10T21:00:00Z,26.4345,-81.9647,11.85,1111122 
SCCF RECON,ioos:station:SCCF:16:1,2011-01-10T22:00:00Z,26.4345,-81.9647,12.51,1111122 
SCCF RECON,ioos:station:SCCF:16:1,2011-01-10T23:00:00Z,26.4345,-81.9647,11.87,1111122 
SCCF RECON,ioos:station:SCCF:16:1,2011-01-11T00:00:00Z,26.4345,-81.9647,10.32,1111122 
SCCF RECON,ioos:station:SCCF:16:1,2011-01-11T01:00:00Z,26.4345,-81.9647,9.89,1111122 
SCCF RECON,ioos:station:SCCF:16:1,2011-01-11T02:00:00Z,26.4345,-81.9647,8.21,1111122 
SCCF RECON,ioos:station:SCCF:16:1,2011-01-11T03:00:00Z,26.4345,-81.9647,7.94,1111122 
SCCF RECON,ioos:station:SCCF:16:1,2011-01-11T04:00:00Z,26.4345,-81.9647,7.34,1111122 
SCCF RECON,ioos:station:SCCF:16:1,2011-01-11T05:00:00Z,26.4345,-81.9647,6.73,1111122 
SCCF RECON,ioos:station:SCCF:16:1,2011-01-11T06:00:00Z,26.4345,-81.9647,5.91,1111122 
SCCF RECON,ioos:station:SCCF:16:1,2011-01-11T07:00:00Z,26.4345,-81.9647,4.59,1111122 
SCCF RECON,ioos:station:SCCF:16:1,2011-01-11T08:00:00Z,26.4345,-81.9647,5.21,1111122 
SCCF RECON,ioos:station:SCCF:16:1,2011-01-11T09:00:00Z,26.4345,-81.9647,7.68,1111122 
SCCF RECON,ioos:station:SCCF:16:1,2011-01-11T10:00:00Z,26.4345,-81.9647,8.7,1111122 
SCCF RECON,ioos:station:SCCF:16:1,2011-01-11T11:00:00Z,26.4345,-81.9647,7.94,1111122 
SCCF RECON,ioos:station:SCCF:16:1,2011-01-11T12:00:00Z,26.4345,-81.9647,6.95,1111122 
SCCF RECON,ioos:station:SCCF:16:1,2011-01-11T13:00:00Z,26.4345,-81.9647,6.35,1111122 
SCCF RECON,ioos:station:SCCF:16:1,2011-01-11T14:00:00Z,26.4345,-81.9647,7.61,1111122 
SCCF RECON,ioos:station:SCCF:16:1,2011-01-11T15:00:00Z,26.4345,-81.9647,6.89,1111122 
SCCF RECON,ioos:station:SCCF:16:1,2011-01-11T17:00:00Z,26.4345,-81.9647,5.26,1111122 
SCCF RECON,ioos:station:SCCF:16:1,2011-01-11T18:00:00Z,26.4345,-81.9647,5.0,1111122 
SCCF RECON,ioos:station:SCCF:16:1,2011-01-11T19:00:00Z,26.4345,-81.9647,4.91,1111122 
SCCF RECON,ioos:station:SCCF:16:1,2011-01-11T20:00:00Z,26.4345,-81.9647,7.16,1111122 
SCCF RECON,ioos:station:SCCF:16:1,2011-01-11T21:00:00Z,26.4345,-81.9647,10.5,1111122 
SCCF RECON,ioos:station:SCCF:16:1,2011-01-11T22:00:00Z,26.4345,-81.9647,6.02,1111122 
SCCF RECON,ioos:station:SCCF:16:1,2011-01-11T23:00:00Z,26.4345,-81.9647,8.41,1111122 
SCCF RECON,ioos:station:SCCF:16:1,2011-01-12T00:00:00Z,26.4345,-81.9647,7.07,1111122 
SCCF RECON,ioos:station:SCCF:16:1,2011-01-12T01:00:00Z,26.4345,-81.9647,11.33,1111122 
SCCF RECON,ioos:station:SCCF:16:1,2011-01-12T02:00:00Z,26.4345,-81.9647,7.81,1111122 
SCCF RECON,ioos:station:SCCF:16:1,2011-01-12T03:00:00Z,26.4345,-81.9647,6.27,1111122 
SCCF RECON,ioos:station:SCCF:16:1,2011-01-12T04:00:00Z,26.4345,-81.9647,6.85,1111122 
SCCF RECON,ioos:station:SCCF:16:1,2011-01-12T05:00:00Z,26.4345,-81.9647,6.37,1111122 
SCCF RECON,ioos:station:SCCF:16:1,2011-01-12T06:00:00Z,26.4345,-81.9647,5.87,1111122 
SCCF RECON,ioos:station:SCCF:16:1,2011-01-12T07:00:00Z,26.4345,-81.9647,5.4,1111122 
SCCF RECON,ioos:station:SCCF:16:1,2011-01-12T08:00:00Z,26.4345,-81.9647,4.89,1111122 
SCCF RECON,ioos:station:SCCF:16:1,2011-01-12T09:00:00Z,26.4345,-81.9647,4.84,1111122 
SCCF RECON,ioos:station:SCCF:16:1,2011-01-12T10:00:00Z,26.4345,-81.9647,4.83,1111122 
SCCF RECON,ioos:station:SCCF:16:1,2011-01-12T11:00:00Z,26.4345,-81.9647,4.85,1111122 
SCCF RECON,ioos:station:SCCF:16:1,2011-01-12T12:00:00Z,26.4345,-81.9647,4.39,1111122 
SCCF RECON,ioos:station:SCCF:16:1,2011-01-12T13:00:00Z,26.4345,-81.9647,4.83,1111122 